Time,TemperatureF,DewpointF,PressureIn,WindDirection,WindDirectionDegrees,WindSpeedMPH,WindSpeedGustMPH,Humidity,HourlyPrecipIn,Conditions,Clouds,dailyrainin,SoftwareType,DateUTC
2013-07-19 00:02:00,77.0,72.0,30.04,SSE,153,0.0,0.0,86,0.00,,,0.00,,2013-07-19 05:02:00,
2013-07-19 00:11:00,77.0,72.0,30.04,SSE,153,0.0,0.0,86,0.00,,,0.00,,2013-07-19 05:11:00,
2013-07-19 00:22:00,77.0,73.0,30.03,SSE,153,0.0,0.0,87,0.00,,,0.00,,2013-07-19 05:22:00,
2013-07-19 00:32:00,77.0,73.0,30.03,SSE,153,0.0,0.0,87,0.00,,,0.00,,2013-07-19 05:32:00,
2013-07-19 00:43:00,76.0,73.0,30.03,SSE,154,0.0,0.0,89,0.00,,,0.00,,2013-07-19 05:43:00,
2013-07-19 00:53:00,76.0,73.0,30.03,SSE,153,0.0,0.0,89,0.00,,,0.00,,2013-07-19 05:53:00,
2013-07-19 01:01:00,76.0,73.0,30.03,SSE,153,0.0,0.0,89,0.00,,,0.00,,2013-07-19 06:01:00,
2013-07-19 01:11:00,76.0,73.0,30.02,SSE,155,0.0,0.0,90,0.00,,,0.00,,2013-07-19 06:11:00,
2013-07-19 01:22:00,76.0,73.0,30.02,East,87,1.0,2.0,89,0.00,,,0.00,,2013-07-19 06:22:00,
2013-07-19 01:32:00,76.0,73.0,30.02,East,87,1.0,2.0,89,0.00,,,0.00,,2013-07-19 06:32:00,
2013-07-19 01:43:00,76.0,73.0,30.01,East,88,0.0,0.0,89,0.00,,,0.00,,2013-07-19 06:43:00,
2013-07-19 01:52:00,76.0,73.0,30.01,East,87,0.0,0.0,89,0.00,,,0.00,,2013-07-19 06:52:00,
2013-07-19 02:01:00,76.0,73.0,30.01,East,87,0.0,0.0,89,0.00,,,0.00,,2013-07-19 07:01:00,
2013-07-19 02:12:00,75.0,72.0,30.01,East,88,0.0,0.0,90,0.00,,,0.00,,2013-07-19 07:12:00,
2013-07-19 02:22:00,75.0,72.0,30.01,ESE,114,0.0,0.0,91,0.00,,,0.00,,2013-07-19 07:22:00,
2013-07-19 02:32:00,75.0,72.0,30.01,ESE,114,0.0,0.0,91,0.00,,,0.00,,2013-07-19 07:32:00,
2013-07-19 02:43:00,75.0,72.0,30.01,ESE,115,0.0,0.0,91,0.00,,,0.00,,2013-07-19 07:43:00,
2013-07-19 02:53:00,75.0,73.0,30.00,ESE,114,0.0,0.0,92,0.00,,,0.00,,2013-07-19 07:53:00,
2013-07-19 03:01:00,75.0,73.0,30.00,ESE,114,0.0,0.0,92,0.00,,,0.00,,2013-07-19 08:01:00,
2013-07-19 03:11:00,75.0,73.0,30.01,ESE,114,0.0,0.0,92,0.00,,,0.00,,2013-07-19 08:11:00,
2013-07-19 03:22:00,74.0,72.0,30.00,ESE,114,0.0,0.0,93,0.00,,,0.00,,2013-07-19 08:22:00,
2013-07-19 03:32:00,74.0,72.0,30.00,ESE,114,0.0,0.0,93,0.00,,,0.00,,2013-07-19 08:32:00,
2013-07-19 03:43:00,74.0,72.0,30.00,ESE,113,0.0,0.0,93,0.00,,,0.00,,2013-07-19 08:43:00,
2013-07-19 03:52:00,74.0,72.0,30.00,ESE,114,0.0,0.0,94,0.00,,,0.00,,2013-07-19 08:52:00,
2013-07-19 04:02:00,74.0,72.0,30.00,ESE,114,0.0,0.0,94,0.00,,,0.00,,2013-07-19 09:02:00,
2013-07-19 04:11:00,74.0,72.0,29.99,ESE,114,0.0,0.0,94,0.00,,,0.00,,2013-07-19 09:11:00,
2013-07-19 04:22:00,73.0,71.0,29.99,ESE,113,0.0,0.0,95,0.00,,,0.00,,2013-07-19 09:22:00,
2013-07-19 04:32:00,73.0,71.0,29.99,ESE,113,0.0,0.0,95,0.00,,,0.00,,2013-07-19 09:32:00,
2013-07-19 04:43:00,73.0,71.0,29.99,ESE,114,0.0,0.0,95,0.00,,,0.00,,2013-07-19 09:43:00,
2013-07-19 04:52:00,73.0,71.0,29.99,ESE,114,0.0,0.0,95,0.00,,,0.00,,2013-07-19 09:52:00,
2013-07-19 05:01:00,73.0,71.0,29.99,ESE,114,0.0,0.0,95,0.00,,,0.00,,2013-07-19 10:01:00,
2013-07-19 05:11:00,73.0,72.0,30.00,ESE,114,0.0,0.0,96,0.00,,,0.00,,2013-07-19 10:11:00,
2013-07-19 05:22:00,73.0,72.0,30.00,ESE,114,0.0,1.0,96,0.00,,,0.00,,2013-07-19 10:22:00,
2013-07-19 05:32:00,73.0,72.0,30.00,ESE,114,0.0,1.0,96,0.00,,,0.00,,2013-07-19 10:32:00,
2013-07-19 05:43:00,73.0,72.0,30.00,ESE,114,0.0,0.0,96,0.00,,,0.00,,2013-07-19 10:43:00,
2013-07-19 05:52:00,72.0,71.0,30.01,ESE,114,0.0,0.0,96,0.00,,,0.00,,2013-07-19 10:52:00,
2013-07-19 06:02:00,72.0,71.0,30.01,ESE,114,0.0,0.0,96,0.00,,,0.00,,2013-07-19 11:02:00,
2013-07-19 06:12:00,72.0,71.0,30.01,ESE,114,0.0,0.0,96,0.00,,,0.00,,2013-07-19 11:12:00,
2013-07-19 06:22:00,72.0,71.0,30.01,ESE,114,0.0,0.0,96,0.00,,,0.00,,2013-07-19 11:22:00,
2013-07-19 06:33:00,72.0,71.0,30.01,ESE,114,0.0,0.0,96,0.00,,,0.00,,2013-07-19 11:33:00,
2013-07-19 06:43:00,72.0,71.0,30.02,ESE,114,0.0,0.0,96,0.00,,,0.00,,2013-07-19 11:43:00,
2013-07-19 06:52:00,72.0,71.0,30.02,ESE,114,0.0,0.0,96,0.00,,,0.00,,2013-07-19 11:52:00,
2013-07-19 07:01:00,72.0,71.0,30.02,ESE,114,0.0,0.0,96,0.00,,,0.00,,2013-07-19 12:01:00,
2013-07-19 07:12:00,72.0,71.0,30.02,ESE,114,0.0,0.0,97,0.00,,,0.00,,2013-07-19 12:12:00,
2013-07-19 07:22:00,74.0,73.0,30.02,ESE,114,0.0,0.0,96,0.00,,,0.00,,2013-07-19 12:22:00,
2013-07-19 07:33:00,74.0,73.0,30.02,ESE,114,0.0,0.0,96,0.00,,,0.00,,2013-07-19 12:33:00,
2013-07-19 07:43:00,76.0,74.0,30.03,ESE,114,0.0,0.0,92,0.00,,,0.00,,2013-07-19 12:43:00,
2013-07-19 07:52:00,77.0,73.0,30.03,ESE,114,0.0,0.0,88,0.00,,,0.00,,2013-07-19 12:52:00,
2013-07-19 08:02:00,77.0,73.0,30.03,ESE,114,0.0,0.0,88,0.00,,,0.00,,2013-07-19 13:02:00,
2013-07-19 08:11:00,79.0,73.0,30.03,SE,141,0.0,0.0,83,0.00,,,0.00,,2013-07-19 13:11:00,
2013-07-19 08:32:00,79.0,73.0,30.03,SE,141,0.0,0.0,82,0.00,,,0.00,,2013-07-19 13:32:00,
2013-07-19 08:43:00,80.0,73.0,30.03,SSW,207,0.0,0.0,80,0.00,,,0.00,,2013-07-19 13:43:00,
2013-07-19 08:53:00,80.0,73.0,30.03,SSW,207,0.0,0.0,80,0.00,,,0.00,,2013-07-19 13:53:00,
2013-07-19 09:02:00,81.0,73.0,30.03,SSW,202,0.0,1.0,78,0.00,,,0.00,,2013-07-19 14:02:00,
2013-07-19 09:11:00,82.0,73.0,30.03,SSW,212,0.0,2.0,75,0.00,,,0.00,,2013-07-19 14:11:00,
2013-07-19 09:22:00,82.0,73.0,30.03,SSW,212,0.0,2.0,75,0.00,,,0.00,,2013-07-19 14:22:00,
2013-07-19 09:33:00,83.0,73.0,30.03,SW,221,0.0,3.0,72,0.00,,,0.00,,2013-07-19 14:33:00,
2013-07-19 09:43:00,85.0,75.0,30.03,SSW,196,0.0,2.0,71,0.00,,,0.00,,2013-07-19 14:43:00,
2013-07-19 09:52:00,85.0,75.0,30.03,SSW,196,0.0,2.0,71,0.00,,,0.00,,2013-07-19 14:52:00,
2013-07-19 10:02:00,86.0,74.0,30.03,SE,141,0.0,2.0,67,0.00,,,0.00,,2013-07-19 15:02:00,
2013-07-19 10:11:00,87.0,74.0,30.03,SW,218,0.0,0.0,66,0.00,,,0.00,,2013-07-19 15:11:00,
2013-07-19 10:22:00,87.0,74.0,30.03,SW,218,0.0,0.0,66,0.00,,,0.00,,2013-07-19 15:22:00,
2013-07-19 10:32:00,88.0,74.0,30.02,South,181,0.0,0.0,64,0.00,,,0.00,,2013-07-19 15:32:00,
2013-07-19 10:43:00,87.0,73.0,30.02,SSW,212,1.0,3.0,63,0.00,,,0.00,,2013-07-19 15:43:00,
2013-07-19 10:52:00,87.0,73.0,30.02,SSW,212,1.0,3.0,63,0.00,,,0.00,,2013-07-19 15:52:00,
2013-07-19 11:01:00,88.0,73.0,30.02,SSW,210,0.0,3.0,62,0.00,,,0.00,,2013-07-19 16:01:00,
2013-07-19 11:11:00,89.0,74.0,30.02,WSW,240,0.0,2.0,61,0.00,,,0.00,,2013-07-19 16:11:00,
2013-07-19 11:22:00,89.0,74.0,30.02,WSW,240,0.0,2.0,61,0.00,,,0.00,,2013-07-19 16:22:00,
2013-07-19 11:32:00,89.0,73.0,30.02,SW,229,1.0,4.0,59,0.00,,,0.00,,2013-07-19 16:32:00,
2013-07-19 11:43:00,90.0,74.0,30.01,West,280,0.0,3.0,60,0.00,,,0.00,,2013-07-19 16:43:00,
2013-07-19 11:52:00,90.0,74.0,30.01,West,280,0.0,3.0,60,0.00,,,0.00,,2013-07-19 16:52:00,
2013-07-19 12:02:00,91.0,73.0,30.01,ESE,117,1.0,3.0,56,0.00,,,0.00,,2013-07-19 17:02:00,
2013-07-19 12:12:00,91.0,74.0,30.01,WSW,242,0.0,3.0,57,0.00,,,0.00,,2013-07-19 17:12:00,
2013-07-19 12:22:00,91.0,74.0,30.01,WSW,242,0.0,3.0,57,0.00,,,0.00,,2013-07-19 17:22:00,
2013-07-19 12:32:00,92.0,75.0,30.00,WNW,301,2.0,5.0,57,0.00,,,0.00,,2013-07-19 17:32:00,
2013-07-19 12:43:00,93.0,74.0,29.99,West,271,0.0,4.0,55,0.00,,,0.00,,2013-07-19 17:43:00,
2013-07-19 12:52:00,93.0,74.0,29.99,West,271,0.0,4.0,55,0.00,,,0.00,,2013-07-19 17:52:00,
2013-07-19 13:01:00,92.0,72.0,29.99,SW,236,0.0,4.0,53,0.00,,,0.00,,2013-07-19 18:01:00,
2013-07-19 13:11:00,93.0,73.0,29.99,West,270,0.0,2.0,52,0.00,,,0.00,,2013-07-19 18:11:00,
2013-07-19 13:21:00,93.0,73.0,29.99,West,270,0.0,2.0,52,0.00,,,0.00,,2013-07-19 18:21:00,
2013-07-19 13:32:00,94.0,72.0,29.98,WNW,299,1.0,4.0,49,0.00,,,0.00,,2013-07-19 18:32:00,
2013-07-19 13:42:00,94.0,73.0,29.98,West,280,0.0,3.0,51,0.00,,,0.00,,2013-07-19 18:42:00,
2013-07-19 13:52:00,94.0,73.0,29.98,West,280,0.0,3.0,51,0.00,,,0.00,,2013-07-19 18:52:00,
2013-07-19 14:01:00,94.0,73.0,29.97,ESE,121,1.0,3.0,51,0.00,,,0.00,,2013-07-19 19:01:00,
2013-07-19 14:11:00,94.0,73.0,29.96,SSW,194,0.0,4.0,51,0.00,,,0.00,,2013-07-19 19:11:00,
2013-07-19 14:21:00,94.0,73.0,29.96,SSW,194,0.0,4.0,51,0.00,,,0.00,,2013-07-19 19:21:00,
2013-07-19 14:32:00,95.0,73.0,29.95,SW,232,2.0,5.0,49,0.00,,,0.00,,2013-07-19 19:32:00,
2013-07-19 14:43:00,95.0,73.0,29.95,NW,304,0.0,3.0,49,0.00,,,0.00,,2013-07-19 19:43:00,
2013-07-19 14:52:00,95.0,73.0,29.95,NW,304,0.0,3.0,49,0.00,,,0.00,,2013-07-19 19:52:00,
2013-07-19 15:01:00,95.0,72.0,29.95,SW,225,0.0,5.0,47,0.00,,,0.00,,2013-07-19 20:01:00,
2013-07-19 15:11:00,97.0,72.0,29.94,NNE,20,0.0,3.0,45,0.00,,,0.00,,2013-07-19 20:11:00,
2013-07-19 15:22:00,97.0,72.0,29.94,NNE,20,0.0,3.0,45,0.00,,,0.00,,2013-07-19 20:22:00,
2013-07-19 15:33:00,96.0,73.0,29.94,WSW,248,0.0,2.0,48,0.00,,,0.00,,2013-07-19 20:33:00,
2013-07-19 15:43:00,95.0,72.0,29.93,WNW,294,0.0,3.0,47,0.00,,,0.00,,2013-07-19 20:43:00,
2013-07-19 15:52:00,95.0,72.0,29.93,WNW,294,0.0,3.0,47,0.00,,,0.00,,2013-07-19 20:52:00,
2013-07-19 16:01:00,96.0,72.0,29.93,SW,226,0.0,2.0,46,0.00,,,0.00,,2013-07-19 21:01:00,
2013-07-19 16:11:00,96.0,71.0,29.92,SW,236,0.0,2.0,44,0.00,,,0.00,,2013-07-19 21:11:00,
2013-07-19 16:21:00,96.0,71.0,29.92,SW,236,0.0,2.0,44,0.00,,,0.00,,2013-07-19 21:21:00,
2013-07-19 16:32:00,94.0,70.0,29.92,WSW,248,0.0,0.0,46,0.00,,,0.00,,2013-07-19 21:32:00,
2013-07-19 16:42:00,93.0,70.0,29.92,WSW,239,0.0,1.0,48,0.00,,,0.00,,2013-07-19 21:42:00,
2013-07-19 16:52:00,93.0,70.0,29.92,WSW,239,0.0,1.0,48,0.00,,,0.00,,2013-07-19 21:52:00,
2013-07-19 17:01:00,95.0,72.0,29.91,SSW,211,0.0,2.0,47,0.00,,,0.00,,2013-07-19 22:01:00,
2013-07-19 17:11:00,96.0,72.0,29.90,SSW,211,0.0,2.0,47,0.00,,,0.00,,2013-07-19 22:11:00,
2013-07-19 17:21:00,96.0,72.0,29.90,SSW,211,0.0,2.0,47,0.00,,,0.00,,2013-07-19 22:21:00,
2013-07-19 17:32:00,92.0,74.0,29.91,NE,54,1.0,7.0,56,0.00,,,0.00,,2013-07-19 22:32:00,
2013-07-19 17:42:00,88.0,74.0,29.91,SSW,200,1.0,8.0,63,0.00,,,0.00,,2013-07-19 22:42:00,
2013-07-19 17:52:00,88.0,74.0,29.91,SSW,200,1.0,8.0,63,0.00,,,0.00,,2013-07-19 22:52:00,
2013-07-19 18:01:00,87.0,73.0,29.91,ENE,73,2.0,6.0,64,0.00,,,0.00,,2013-07-19 23:01:00,
2013-07-19 18:11:00,88.0,73.0,29.91,SSW,207,2.0,5.0,62,0.00,,,0.00,,2013-07-19 23:11:00,
2013-07-19 18:21:00,88.0,73.0,29.91,SSW,207,2.0,5.0,62,0.00,,,0.00,,2013-07-19 23:21:00,
2013-07-19 18:32:00,87.0,74.0,29.91,West,276,1.0,6.0,65,0.00,,,0.00,,2013-07-19 23:32:00,
2013-07-19 18:43:00,86.0,73.0,29.91,East,88,2.0,6.0,66,0.00,,,0.00,,2013-07-19 23:43:00,
2013-07-19 18:52:00,86.0,73.0,29.91,East,88,2.0,6.0,66,0.00,,,0.00,,2013-07-19 23:52:00,
2013-07-19 19:01:00,85.0,73.0,29.91,WSW,243,2.0,6.0,67,0.00,,,0.00,,2013-07-20 00:01:00,
2013-07-19 19:11:00,84.0,71.0,29.90,WSW,256,2.0,6.0,66,0.00,,,0.00,,2013-07-20 00:11:00,
2013-07-19 19:22:00,84.0,71.0,29.90,WSW,256,2.0,6.0,66,0.00,,,0.00,,2013-07-20 00:22:00,
2013-07-19 19:32:00,84.0,71.0,29.90,SW,221,1.0,3.0,66,0.00,,,0.00,,2013-07-20 00:32:00,
2013-07-19 19:43:00,84.0,72.0,29.91,SSW,205,1.0,4.0,68,0.00,,,0.00,,2013-07-20 00:43:00,
2013-07-19 19:52:00,84.0,72.0,29.91,SSW,205,1.0,4.0,68,0.00,,,0.00,,2013-07-20 00:52:00,
2013-07-19 20:01:00,83.0,72.0,29.91,SW,231,1.0,6.0,70,0.00,,,0.00,,2013-07-20 01:01:00,
2013-07-19 20:11:00,83.0,73.0,29.91,SW,221,1.0,4.0,71,0.00,,,0.00,,2013-07-20 01:11:00,
2013-07-19 20:22:00,83.0,73.0,29.91,SW,221,1.0,4.0,71,0.00,,,0.00,,2013-07-20 01:22:00,
2013-07-19 20:32:00,82.0,72.0,29.90,SE,128,0.0,3.0,71,0.00,,,0.00,,2013-07-20 01:32:00,
2013-07-19 20:52:00,82.0,72.0,29.89,ESE,120,0.0,2.0,72,0.00,,,0.00,,2013-07-20 01:52:00,
2013-07-19 21:02:00,82.0,72.0,29.89,ESE,120,0.0,2.0,72,0.00,,,0.00,,2013-07-20 02:02:00,
2013-07-19 21:11:00,80.0,72.0,29.90,SW,224,0.0,4.0,76,0.00,,,0.00,,2013-07-20 02:11:00,
2013-07-19 21:22:00,80.0,72.0,29.90,SW,224,0.0,4.0,76,0.00,,,0.00,,2013-07-20 02:22:00,
2013-07-19 21:33:00,80.0,72.0,29.90,SE,132,0.0,1.0,78,0.00,,,0.00,,2013-07-20 02:33:00,
2013-07-19 21:43:00,79.0,72.0,29.90,SE,146,0.0,2.0,80,0.00,,,0.00,,2013-07-20 02:43:00,
2013-07-19 21:52:00,79.0,72.0,29.90,SE,146,0.0,2.0,80,0.00,,,0.00,,2013-07-20 02:52:00,
2013-07-19 22:02:00,79.0,72.0,29.91,ESE,121,0.0,1.0,80,0.00,,,0.00,,2013-07-20 03:02:00,
2013-07-19 22:11:00,78.0,72.0,29.92,ESE,122,0.0,3.0,81,0.00,,,0.00,,2013-07-20 03:11:00,
2013-07-19 22:22:00,78.0,72.0,29.92,ESE,122,0.0,3.0,81,0.00,,,0.00,,2013-07-20 03:22:00,
2013-07-19 22:32:00,78.0,72.0,29.93,SSE,158,0.0,3.0,82,0.00,,,0.00,,2013-07-20 03:32:00,
2013-07-19 22:44:00,78.0,72.0,29.94,ESE,108,0.0,2.0,83,0.00,,,0.00,,2013-07-20 03:44:00,
2013-07-19 22:53:00,78.0,72.0,29.94,ESE,108,0.0,2.0,83,0.00,,,0.00,,2013-07-20 03:53:00,
2013-07-19 23:02:00,77.0,72.0,29.94,ENE,75,0.0,3.0,85,0.00,,,0.00,,2013-07-20 04:02:00,
2013-07-19 23:11:00,77.0,73.0,29.95,SSE,160,0.0,3.0,87,0.00,,,0.00,,2013-07-20 04:11:00,
2013-07-19 23:22:00,77.0,73.0,29.95,SSE,160,0.0,3.0,87,0.00,,,0.00,,2013-07-20 04:22:00,
2013-07-19 23:33:00,77.0,73.0,29.95,WSW,256,0.0,2.0,88,0.00,,,0.00,,2013-07-20 04:33:00,
2013-07-19 23:52:00,77.0,72.0,29.95,SSE,165,0.0,5.0,86,0.00,,,0.00,,2013-07-20 04:52:00,